Danville, VA

5:47 PM EST on November 23, 2017 (GMT -0500)
Danville Regional

Weather History for KDAN - June, 2013

Change the Weather History Date:

Sunday, June 2, 2013

  Actual Average Record
Temperature  
Mean Temperature 77 °F 71 °F  
Max Temperature 85 °F 81 °F 102 °F (1951)
Min Temperature 68 °F 61 °F 44 °F (2003)
Degree Days  
Heating Degree Days 0 0  
Month to date heating degree days 0 0  
Since 1 June heating degree days 0 0  
Since 1 July heating degree days 3778 3811  
Cooling Degree Days 12 7  
Month to date cooling degree days 25 13  
Year to date cooling degree days 187 157  
Since 1 June cooling degree days 25 13  
Growing Degree Days 25 (Base 50)    
Moisture  
Dew Point 66 °F    
Average Humidity 76    
Maximum Humidity 93    
Minimum Humidity 58    
Precipitation  
Precipitation 0.37 in 0.15 in 1.37 in (2015)
Month to date precipitation 0.37 0.30  
Year to date precipitation 20.58 18.18  
Snow  
Snow 0.00 in - - ()
Month to date snowfall 0.0  
Since 1 June snowfall 0.0  
Since 1 July snowfall 1.7  
Snow Depth 0.00 in    
Sea Level Pressure  
Sea Level Pressure 29.94 in    
Wind  
Wind Speed 7 mph (SW)    
Max Wind Speed 17 mph    
Max Gust Speed 25 mph    
Visibility 8 miles    
Events Rain , Thunderstorm    
T = Trace of Precipitation, MM = Missing Value Source: NWS Daily Summary

Daily Weather History Graph

Daily Weather History Graph

Search for Another Location

Airport or City:

Trip Planner

Search our weather history database for the weather conditions in past years. The results will help you decide how hot, cold, wet, or windy it might be!

Date:

Astronomy

Jun. 02, 2013 Rise Set
Actual Time 6:00 AM EDT 8:31 PM EDT
Civil Twilight 5:29 AM EDT 9:01 PM EDT
Nautical Twilight 4:52 AM EDT 9:38 PM EDT
Astronomical Twilight 4:11 AM EDT 10:19 PM EDT
Moon 2:17 AM EDT (6/2) 3:07 PM EDT (6/2)
Length of Visible Light 15h 31m
Length of Day
14h 31m
Waning Crescent, 31% of the Moon is Illuminated
Jun 2
Waning Crescent
Jun 8
New
Jun 16
First Quarter
Jun 23
Full
Jun 30
Last Quarter

Hourly Weather History & Observations

Time (EDT) Temp. Heat Index Dew Point Humidity Pressure Visibility Wind Dir Wind Speed Gust Speed Precip Events Conditions
12:53 AM 73.0 °F - 64.0 °F 73% 29.99 in 10.0 mi SSW 6.9 mph - N/A   Clear
1:53 AM 73.9 °F - 64.0 °F 71% 29.98 in 10.0 mi SSW 11.5 mph 18.4 mph N/A   Clear
2:53 AM 73.0 °F - 64.0 °F 73% 29.95 in 10.0 mi SSW 9.2 mph 17.3 mph N/A   Clear
3:53 AM 72.0 °F - 64.0 °F 76% 29.94 in 10.0 mi SSW 6.9 mph - N/A   Clear
4:53 AM 70.0 °F - 64.0 °F 81% 29.95 in 10.0 mi SSW 5.8 mph - N/A   Clear
5:53 AM 70.0 °F - 64.0 °F 81% 29.96 in 10.0 mi SSW 4.6 mph - N/A   Overcast
6:53 AM 71.1 °F - 64.0 °F 78% 29.96 in 10.0 mi SSW 6.9 mph - N/A   Clear
7:53 AM 73.0 °F - 64.9 °F 76% 29.96 in 10.0 mi SW 6.9 mph - N/A   Mostly Cloudy
8:53 AM 73.9 °F - 64.0 °F 71% 29.97 in 10.0 mi SW 13.8 mph 20.7 mph N/A   Clear
9:53 AM 78.1 °F - 66.0 °F 66% 29.95 in 10.0 mi SW 9.2 mph - N/A   Clear
10:53 AM 79.0 °F - 64.0 °F 60% 29.96 in 10.0 mi SW 15.0 mph 20.7 mph N/A   Clear
11:53 AM 81.0 °F 82.5 °F 64.0 °F 56% 29.96 in 10.0 mi SW 11.5 mph 19.6 mph N/A   Clear
12:53 PM 81.0 °F 82.7 °F 64.9 °F 58% 29.96 in 10.0 mi SSW 9.2 mph 18.4 mph N/A   Mostly Cloudy
1:53 PM 81.0 °F 83.0 °F 66.0 °F 60% 29.95 in 10.0 mi SSW 10.4 mph - N/A   Overcast
2:53 PM 81.0 °F 83.3 °F 66.9 °F 62% 29.94 in 10.0 mi South 8.1 mph - N/A   Overcast
3:53 PM 82.9 °F 85.0 °F 66.0 °F 56% 29.91 in 10.0 mi SSW 5.8 mph - N/A   Scattered Clouds
4:53 PM 80.1 °F 82.3 °F 66.9 °F 64% 29.90 in 10.0 mi SSW 5.8 mph - N/A   Overcast
5:26 PM 78.8 °F - 68.0 °F 69% 29.94 in 10.0 mi WNW 6.9 mph - N/A Thunderstorm Mostly Cloudy
5:44 PM 73.4 °F - 69.8 °F 88% 29.96 in 6.0 mi WNW 15.0 mph 20.7 mph 0.02 in Rain Light Rain
5:53 PM 72.0 °F - 68.0 °F 87% 29.93 in 6.0 mi NW 12.7 mph 25.3 mph 0.04 in Rain Light Rain
6:11 PM 71.6 °F - 66.2 °F 83% 29.95 in 6.0 mi NNW 6.9 mph - 0.04 in Rain , Thunderstorm Light Thunderstorms and Rain
6:24 PM 71.6 °F - 66.2 °F 83% 29.95 in 2.5 mi SW 3.5 mph - 0.10 in Rain Rain
6:34 PM 69.8 °F - 66.2 °F 88% 29.95 in 1.8 mi South 4.6 mph - 0.15 in Rain , Thunderstorm Thunderstorms and Rain
6:41 PM 69.8 °F - 66.2 °F 88% 29.95 in 2.0 mi SSW 4.6 mph - 0.18 in Rain , Thunderstorm Thunderstorms and Rain
6:51 PM 69.8 °F - 66.2 °F 88% 29.94 in 3.0 mi South 3.5 mph - 0.21 in Rain , Thunderstorm Light Rain
6:53 PM 70.0 °F - 66.9 °F 90% 29.92 in 3.0 mi SW 4.6 mph - 0.21 in Rain , Thunderstorm Light Rain
7:22 PM 69.8 °F - 66.2 °F 88% 29.95 in 6.0 mi SW 9.2 mph - 0.05 in Rain Light Rain
7:53 PM 69.1 °F - 64.9 °F 87% 29.92 in 10.0 mi SSW 4.6 mph - 0.07 in   Mostly Cloudy
8:53 PM 69.1 °F - 66.0 °F 90% 29.94 in 10.0 mi West 6.9 mph - 0.00 in Rain Light Rain
9:53 PM 68.0 °F - 66.0 °F 93% 29.88 in 9.0 mi Calm Calm - 0.03 in   Partly Cloudy
10:53 PM 68.0 °F - 66.0 °F 93% 29.91 in 10.0 mi SSW 4.6 mph - N/A   Mostly Cloudy
11:23 PM 68.0 °F - 66.2 °F 94% 29.95 in 10.0 mi SSW 3.5 mph - N/A   Mostly Cloudy
11:53 PM 68.0 °F - 66.0 °F 93% 29.94 in 10.0 mi Calm Calm - 0.01 in   Mostly Cloudy